This demonstration page uses our WeatherBlox Daily Observations layout. Learn more.

Left ArrowRight Arrow

47.50024, -111.30081

Hourly Observations for April 5, 2019

Temp ( °F °C ) Dew Point ( °F °C ) Humidity (%) Winds ( mph kmh ) Pressure ( in mb ) Visibility ( mi km ) Precip ( " mm )
12:53 am 00:53 Cloudy 46 7.8 36 2.2 68 68 SSW 5 7 29.87 1012 10 16 0.00 0.00
1:53 am 01:53 Cloudy with Light Rain 45 7.2 38 3.3 77 77 S 8 13 29.88 1012 10 16 0.00 0.03
2:53 am 02:53 Cloudy with Light Rain 44 6.7 38 3.3 79 79 S 6 9 29.87 1012 10 16 0.00 0.03
3:53 am 03:53 Cloudy with Light Rain 44 6.7 40 4.4 85 85 S 8 13 29.87 1011 10 16 0.00 0.03
4:53 am 04:53 Cloudy with Light Rain 43 6.1 41 5 93 93 SW 7 11 29.85 1011 10 16 0.00 0.03
5:53 am 05:53 Cloudy 42 5.6 40 4.4 92 92 S 6 9 29.85 1011 10 16 0.00 0.03
6:53 am 06:53 Cloudy 43 6.1 40 4.4 89 89 S 6 9 29.85 1011 10 16 0.00 0.00
7:53 am 07:53 Cloudy 44 6.7 40 4.4 85 85 SSE 3 6 29.85 1011 10 16 0.00 0.00
8:53 am 08:53 Cloudy 45 7.2 41 5 86 86 NE 3 6 29.86 1011 10 16 0.00 0.00
9:53 am 09:53 Mostly Sunny 47 8.3 39 3.9 74 74 N 7 11 29.85 1011 10 16 0.00 0.00
10:53 am 10:53 Sunny 50 10 39 3.9 66 66 VRB 6 9 29.84 1011 10 16 0.00 0.00
11:53 am 11:53 Sunny 54 12.2 40 4.4 59 59 ESE 3 6 29.82 1010 10 16 0.00 0.00
12:53 pm 12:53 Sunny 55 12.8 38 3.3 53 53 Calm 29.78 1009 10 16 0.00 0.00
1:53 pm 13:53 Sunny 57 13.9 39 3.9 51 51 VRB 6 9 29.76 1008 10 16 0.00 0.00
2:53 pm 14:53 Sunny 58 14.4 39 3.9 50 50 ENE 8 13 29.74 1007 10 16 0.00 0.00
3:53 pm 15:53 Cloudy 57 13.9 38 3.3 49 49 E 9 15 29.72 1006 10 16 0.00 0.00
4:53 pm 16:53 Cloudy 57 13.9 38 3.3 49 49 NE 10 17 29.72 1006 10 16 0.00 0.00
5:53 pm 17:53 Cloudy with Light Rain 56 13.3 40 4.4 55 55 ESE 8 13 29.72 1007 10 16 0.00 0.03
6:53 pm 18:53 Cloudy 55 12.8 41 5 59 59 NE 6 9 29.72 1007 10 16 0.00 0.03
7:53 pm 19:53 Cloudy 54 12.2 40 4.4 59 59 SSE 3 6 29.72 1006 10 16 0.00 0.00
8:53 pm 20:53 Mostly Clear 49 9.4 39 3.9 69 69 SSE 5 7 29.73 1007 10 16 0.00 0.00
9:53 pm 21:53 Mostly Cloudy 45 7.2 39 3.9 80 80 SSW 7 11 29.75 1008 10 16 0.00 0.00
10:53 pm 22:53 Clear 41 5 37 2.8 86 86 S 8 13 29.75 1007 10 16 0.00 0.00
11:53 pm 23:53 Clear 45 7.2 39 3.9 80 80 SSW 10 17 29.72 1006 10 16 0.00 0.00

Powered by AerisWeather